Dewpoint
-4 -4 -4 -5 -10 -15 -17 -18 -19 -14 -10 -7 -6 -5 -4 -6 -20 -23 -25 -24 -16 -4 -0 -2 5 12 12 14 15 16 18 17 17 16 15 14 14 14 13 13 14 14 13 14 14
-5 -4 -4 -5 -10 -15 -18 -19 -19 -17 -13 -11 -9 -8 -5 -3 -12 -21 -25 -26 -20 -5 0 -0 3 12 13 13 14 16 17 17 16 15 14 14 13 13 13 13 15 15 15 14 14
-4 -4 -4 -4 -8 -13 -16 -18 -19 -19 -15 -13 -11 -10 -7 -4 -17 -9 -8 -27 -20 -7 -0 -0 4 10 10 10 14 16 16 15 15 15 14 13 13 12 13 13 14 14 15 15 15
-7 -9 -9 -9 -11 -14 -15 -16 -17 -18 -17 -14 -12 -11 -7 -6 -14 0 -4 -27 -20 -6 -2 -1 9 11 12 10 12 16 15 15 14 15 14 13 13 12 12 13 13 14 13 14 13
-6 -8 -12 -13 -13 -14 -15 -15 -17 -17 -17 -15 -13 -11 -8 -6 -15 -7 -4 -21 -19 -1 -0 0 5 11 14 12 12 15 15 15 15 15 15 13 13 12 14 13 14 14 14 13 13
-3 -7 -11 -15 -16 -16 -18 -20 -19 -17 -16 -14 -13 -11 -8 -7 -16 -2 -7 -23 -5 -0 2 1 6 12 10 10 12 14 15 16 16 15 16 14 13 12 14 13 14 14 14 14 14
-2 -4 -10 -10 -15 -19 -21 -19 -15 -10 -8 -8 -10 -10 -8 -5 -6 -1 -8 -20 -1 -0 0 2 6 9 9 9 9 14 16 15 15 15 16 15 14 15 15 13 14 14 14 14 14
-2 -2 -8 -10 -9 -15 -15 -9 -3 -6 -9 -9 -10 -10 -8 -7 -6 -2 -14 -15 -2 -2 -4 -0 5 8 9 8 4 15 14 17 16 16 16 15 17 15 15 14 14 14 15 15 15
-3 -2 -3 -8 -8 -5 -5 -4 -1 1 -8 -13 -12 -11 -7 -8 -6 -1 -12 -9 -6 -5 -2 -2 4 6 4 3 5 13 16 16 18 16 17 14 16 16 15 14 14 15 15 15 15
-7 -5 -2 -8 -7 -5 -5 -4 -0 2 -0 -2 -6 0 -1 -1 -4 0 -2 -3 -5 -6 -3 -3 0 6 4 3 9 12 15 15 17 17 15 15 15 16 16 15 14 15 15 15 15
-7 -9 -6 -6 -6 -6 -3 -3 -0 -1 0 -1 -2 -3 -4 -2 -1 -1 -1 -6 -6 -5 -1 -0 6 10 8 2 2 3 9 15 17 16 16 16 16 16 15 15 15 14 14 14 14
-6 -8 -9 -5 -5 -5 -3 -1 -0 -0 0 -2 -2 -2 -4 -4 -3 -4 -1 -4 -7 -6 -1 2 5 6 2 1 1 8 13 16 16 16 15 16 17 15 15 15 15 15 14 14 14
-5 -7 -9 -11 -6 -4 -2 -1 -1 -0 -0 -3 -5 -4 -5 -4 -3 -2 -2 -4 -6 -1 -1 -1 1 2 -1 0 1 1 6 14 16 15 14 15 16 16 15 15 15 14 14 14 14
-5 -7 -11 -13 -6 -5 -2 -2 -1 -1 -2 0 -5 -5 -2 -2 -2 -3 -2 -4 -3 -3 2 2 0 3 0 0 0 2 2 13 15 13 14 13 15 15 15 15 15 14 15 14 13
-6 -10 -12 -14 -9 -4 -2 -2 -1 -4 1 0 -3 -6 -3 -5 -3 -3 -2 -3 -3 -0 1 1 2 2 2 -0 1 2 3 13 13 14 14 14 15 14 15 16 16 15 14 14 13
-8 -8 -11 -14 -7 -3 -3 -2 -3 -3 4 1 -1 -2 -6 -4 -7 -2 -2 -2 -1 -1 0 0 -2 -0 0 -1 -0 1 10 11 12 13 14 10 11 14 15 15 14 14 14 14 14
-4 -8 -14 -11 -3 -3 -3 -1 -1 4 0 1 1 -2 -0 -1 -3 -4 -2 -1 1 3 2 0 -1 -3 -3 -1 -2 -1 5 12 13 12 10 12 13 10 13 13 12 14 14 14 14
-4 -12 -14 -8 -4 -3 0 0 5 3 3 1 0 -1 1 1 2 -2 -1 0 -1 1 2 2 0 -1 -3 -2 -1 -0 1 7 12 12 10 13 13 11 12 14 13 13 14 15 14
-6 -9 -7 -4 -3 -1 -0 2 3 3 3 2 -0 1 1 1 2 1 -1 -1 -1 -1 2 3 2 -2 -3 -3 -3 -2 0 1 7 8 11 13 12 11 14 14 13 13 14 15 15
-4 -5 -3 -2 -1 1 -0 2 2 2 2 -0 2 2 1 3 1 3 2 2 0 -0 -1 1 2 -1 -1 -2 -4 -3 -4 -0 2 9 10 11 13 10 16 16 15 14 14 14 14
-2 -2 -0 1 1 -0 2 2 2 1 2 -1 1 1 3 3 4 4 4 2 0 0 0 -1 1 1 0 1 -1 -1 -1 1 -0 3 6 7 10 13 14 16 15 15 15 15 15
-1 1 0 -0 1 3 3 3 3 1 2 -0 1 2 3 4 3 4 5 4 2 0 1 1 1 2 0 0 0 1 -0 -1 1 5 4 4 7 13 14 15 15 15 15 15 15
0 1 0 0 2 2 2 2 3 1 -1 -3 -2 -0 2 3 3 3 3 2 3 1 1 2 3 3 2 2 1 2 2 2 1 4 5 4 4 13 13 15 15 15 15 16 16
-1 -0 -1 1 -0 0 2 1 -0 -1 -2 -1 -1 -0 1 2 3 3 1 1 -0 1 4 2 3 3 1 2 3 4 2 1 1 1 1 5 7 14 14 15 15 15 15 16 16
-1 1 -2 1 -2 -1 -0 -3 -4 -4 -5 -1 1 1 1 1 2 2 -0 -1 2 4 1 1 5 4 3 2 2 2 0 4 1 2 3 1 9 12 14 14 14 14 15 15 15
3 3 -0 -0 -4 -3 -3 -2 -4 -3 -3 -3 -2 -1 0 1 2 1 -0 0 1 1 2 1 5 5 5 3 3 1 0 4 6 2 3 9 8 11 13 13 14 14 14 15 15
3 3 -3 -1 -4 -3 -2 -2 -3 -3 -3 -4 -3 -1 1 -1 -2 -1 -2 -2 -1 1 3 3 5 6 5 4 2 3 2 3 7 8 9 10 11 12 13 14 14 14 14 14 14
Wind_Speed
11 10 9 9 10 9 9 9 8 7 7 7 7 7 8 7 9 10 13 7 12 20 19 17 14 15 13 7 4 3 2 3 6 7 4 10 7 6 7 17 8 2 21 23 29
11 10 10 9 9 8 8 10 10 7 6 7 6 7 8 9 10 13 7 10 16 23 23 20 17 17 7 5 4 4 1 2 4 5 10 11 12 11 10 13 12 21 20 28 27
12 12 11 10 9 9 8 7 8 9 7 6 6 6 7 7 8 2 2 14 19 24 21 17 16 9 4 4 4 1 1 6 11 4 6 16 13 9 18 8 15 29 29 26 25
13 13 12 11 9 8 7 7 7 7 7 7 5 5 5 4 2 3 0 13 20 22 22 18 17 6 3 3 1 3 2 7 3 5 6 14 13 14 5 3 19 30 32 28 24
14 14 12 11 8 7 8 8 5 6 6 6 6 4 4 5 4 2 2 16 21 22 23 18 17 6 4 3 1 5 5 15 11 5 3 11 11 14 6 18 25 26 26 24 21
15 16 15 12 10 8 7 6 5 3 3 4 5 5 4 3 3 2 3 19 22 26 22 16 12 7 5 3 3 4 8 11 7 10 7 7 8 12 7 25 24 25 23 22 21
14 15 15 13 11 9 6 4 4 4 4 2 3 4 6 6 3 4 10 19 21 22 22 14 14 6 4 4 3 7 10 12 5 14 7 8 3 5 15 25 25 22 21 19 18
14 14 14 12 11 9 6 5 5 6 5 2 3 4 4 5 5 7 13 18 18 16 11 12 13 5 3 4 3 7 4 7 8 12 15 10 8 8 12 24 24 21 20 19 18
15 14 13 11 8 7 8 6 5 5 5 3 0 2 1 3 7 11 13 11 14 13 8 14 6 3 2 2 3 1 3 5 8 10 5 5 1 10 17 20 22 21 19 19 18
16 15 13 10 7 7 9 4 6 3 1 4 3 1 3 2 8 14 14 9 13 14 8 6 4 4 2 4 4 4 2 3 9 7 13 12 14 18 18 16 21 22 20 19 20
17 16 14 11 8 8 7 2 6 3 8 7 6 5 4 5 7 15 13 13 12 11 5 5 7 10 9 4 3 3 8 8 12 10 7 4 6 20 24 17 20 21 20 20 22
17 17 16 12 8 4 4 3 5 5 6 6 9 13 11 5 4 13 19 5 9 11 8 6 14 7 4 3 4 6 8 6 9 8 4 6 6 9 22 24 24 21 20 22 19
17 18 17 13 9 2 2 4 11 11 1 4 3 2 3 9 6 13 22 9 10 9 10 12 5 8 5 6 6 3 1 5 6 6 7 11 2 4 17 15 20 21 17 21 24
19 20 18 13 4 3 4 9 13 4 2 7 2 1 4 5 4 16 20 10 4 11 7 6 4 12 5 5 5 3 3 8 15 8 3 6 4 13 15 18 18 26 26 17 23
21 21 16 6 6 1 2 11 6 2 2 9 3 2 1 1 7 9 21 5 9 8 5 5 10 11 8 6 3 2 5 10 8 4 1 7 4 3 18 15 21 27 34 29 19
23 20 11 3 2 2 5 9 2 2 3 4 4 5 3 5 3 7 12 6 4 6 1 3 2 6 7 3 7 6 8 9 4 3 3 3 6 8 12 24 19 27 32 36 27
22 13 3 4 5 2 7 2 1 3 3 6 4 5 4 5 3 3 11 8 4 6 7 3 3 2 2 8 2 6 8 3 2 4 3 2 6 6 8 10 20 28 36 36 34
15 6 7 7 3 3 5 1 4 2 3 3 3 3 4 7 3 3 10 8 3 2 4 7 7 7 6 7 6 11 12 5 6 4 3 2 5 1 3 7 10 25 31 27 31
7 11 10 6 2 6 3 3 1 1 2 5 1 4 4 3 3 1 2 8 5 6 3 5 5 1 6 5 9 5 8 1 2 1 4 2 3 5 3 3 13 23 23 26 31
8 12 9 6 4 5 3 2 0 2 3 1 3 3 5 6 2 2 1 2 2 2 3 6 2 0 3 4 2 6 10 9 4 7 8 3 4 3 5 6 11 19 27 26 26
5 5 4 3 6 5 3 2 2 3 3 3 2 2 2 3 4 3 2 1 0 1 0 6 3 4 2 6 9 6 6 2 6 4 10 7 4 1 6 9 12 16 21 24 26
3 3 2 1 3 3 2 0 2 3 1 1 2 2 3 2 3 3 1 2 2 2 4 1 3 6 6 2 4 2 5 12 8 10 5 7 5 1 3 8 11 13 14 18 21
3 4 4 3 2 3 0 1 2 2 3 1 1 2 1 2 1 2 2 2 3 1 1 2 1 4 5 4 3 2 2 1 2 1 12 12 7 2 6 8 11 13 14 15 17
2 2 3 2 4 2 1 2 2 2 3 2 2 2 2 0 1 1 3 2 5 1 5 2 1 4 6 0 1 3 2 0 5 9 11 9 5 8 11 11 11 12 11 13 16
3 2 2 2 3 4 2 1 2 4 4 10 3 6 2 1 1 1 1 3 2 1 2 1 1 1 3 5 2 1 1 2 7 9 9 12 8 11 15 14 16 14 13 13 15
3 3 5 3 2 1 2 3 4 3 5 4 4 7 1 0 3 4 3 1 2 1 2 2 1 2 3 4 2 4 3 5 1 7 9 7 8 5 18 16 16 17 15 16 17
4 6 3 2 2 0 1 2 3 1 1 1 3 3 1 2 4 6 6 3 1 1 2 0 3 3 5 3 2 5 4 4 3 4 5 6 3 18 17 20 20 16 15 14 16
Wind_Direction
348 344 340 332 326 319 306 297 290 288 289 282 276 278 280 276 276 268 254 218 190 180 174 169 155 158 162 179 190 184 214 167 131 136 161 148 127 71 107 130 91 132 140 149 154
353 348 343 338 328 322 316 307 298 282 284 285 279 276 278 282 284 274 252 204 187 186 180 179 162 160 164 189 219 226 236 141 109 150 158 158 137 129 134 126 98 112 127 148 153
360 352 345 339 332 325 319 309 299 293 282 281 278 270 273 292 305 156 200 193 186 186 186 179 169 154 157 183 212 264 258 148 154 162 144 145 132 132 141 153 162 145 145 153 157
8 358 349 342 333 323 317 313 305 293 289 286 276 269 264 271 160 157 140 187 180 180 187 166 164 141 124 206 239 279 160 139 131 180 115 148 131 135 121 145 159 149 151 156 161
14 7 355 343 339 331 320 312 304 298 292 292 286 258 245 251 251 219 259 180 176 179 178 168 165 140 162 204 315 237 173 148 191 167 100 145 142 139 104 133 144 147 151 158 161
14 10 5 354 344 337 330 320 316 300 282 287 277 266 211 241 243 215 174 176 176 169 167 166 174 152 159 184 199 294 170 130 161 191 148 105 118 142 131 147 150 155 159 162 162
14 13 12 10 1 355 356 358 352 336 309 259 242 233 237 216 173 171 155 176 175 174 172 168 172 161 160 192 199 186 125 133 169 154 144 110 68 88 146 163 158 165 166 167 166
13 13 12 11 13 18 23 21 12 10 353 313 198 210 230 205 188 159 155 166 174 178 186 175 165 192 240 280 173 185 167 154 164 142 147 148 183 214 155 168 169 172 174 175 178
9 9 7 7 12 18 15 360 355 351 25 32 198 219 196 141 173 158 154 174 167 167 129 184 166 206 237 221 147 232 212 167 137 168 125 103 98 211 188 185 176 176 180 182 185
7 5 2 -0 0 0 350 356 357 353 327 351 299 305 102 70 166 163 153 168 154 159 138 148 176 205 201 213 193 169 148 142 129 169 112 153 223 181 192 198 193 179 183 189 193
2 2 357 354 355 2 18 42 3 351 304 257 273 278 319 97 146 175 147 144 146 146 156 161 194 202 178 210 117 111 127 156 102 126 88 91 148 162 186 200 204 187 188 197 202
352 352 351 345 350 18 54 67 28 329 309 316 260 251 247 250 128 160 161 131 152 158 144 157 213 194 219 234 181 113 120 84 87 119 106 127 98 184 177 189 192 195 199 203 205
346 342 343 330 335 68 111 18 344 330 273 317 321 243 189 178 178 166 168 149 163 158 178 190 194 168 188 180 191 151 148 151 127 131 84 130 82 210 200 205 191 197 204 211 203
340 335 334 327 333 356 131 355 344 350 10 21 42 133 157 151 122 168 170 145 161 178 173 205 150 172 179 167 204 184 186 130 140 168 131 208 167 216 202 204 190 199 215 208 211
335 329 324 300 290 357 26 348 352 355 109 342 43 92 148 236 129 174 179 187 165 160 196 153 163 170 183 184 142 67 145 129 149 87 193 199 247 139 186 202 208 201 206 209 210
331 328 324 302 223 173 356 340 1 263 67 14 16 348 163 14 69 127 177 183 129 140 173 132 170 187 199 150 170 158 92 99 94 33 255 231 236 172 182 214 205 206 200 205 209
332 332 332 128 128 60 349 340 338 48 324 4 348 0 70 20 72 121 171 182 183 165 173 190 172 153 163 148 166 206 180 129 64 214 259 288 199 268 198 200 209 194 201 203 205
349 44 94 122 129 6 351 93 70 29 4 342 352 30 60 358 52 19 158 185 111 136 166 185 202 199 162 209 181 196 204 212 203 202 207 174 218 211 239 256 230 201 202 198 202
54 93 95 116 70 4 11 58 81 200 329 335 152 63 55 44 1 44 94 185 194 190 217 171 221 219 210 164 197 167 208 262 201 113 237 179 251 237 261 239 186 183 186 186 196
106 100 90 94 51 4 74 96 119 272 326 312 68 21 39 6 33 14 152 146 179 227 278 174 215 130 146 171 130 222 171 198 212 199 222 204 264 236 200 194 181 182 186 187 190
121 99 110 94 11 35 70 62 306 294 279 12 79 72 61 16 19 31 10 97 286 65 142 153 223 144 249 209 197 178 195 199 231 241 224 222 225 113 179 190 196 189 188 183 188
106 88 117 63 22 33 60 208 321 330 32 20 76 77 48 57 18 17 324 294 12 89 187 159 186 228 246 84 335 289 246 221 222 197 239 269 227 71 193 181 193 187 182 184 187
81 90 105 63 35 58 300 302 288 11 26 78 92 8 96 79 31 353 313 320 285 342 150 182 192 197 195 164 143 154 104 66 248 270 210 226 223 138 147 166 187 180 177 174 174
103 112 66 72 86 89 83 24 115 79 48 344 66 125 146 146 109 352 318 314 344 254 108 108 171 241 248 232 15 176 138 284 233 225 223 239 228 192 182 178 176 177 172 174 175
65 85 102 101 61 96 90 358 36 22 20 26 95 37 292 189 147 46 322 304 84 25 67 2 260 239 156 144 144 242 98 281 220 241 233 229 220 199 184 180 177 169 166 171 184
93 134 96 80 79 74 19 41 41 49 9 16 15 348 357 348 359 45 340 43 30 33 58 9 192 191 232 196 230 231 303 340 249 238 256 267 222 189 161 161 158 162 166 170 172
63 100 101 21 71 121 33 96 51 16 122 63 339 305 264 71 296 291 293 275 301 318 117 135 163 172 243 332 221 237 301 316 305 260 276 231 7 162 163 164 164 159 166 164 174
Height
1514 1513 1512 1511 1510 1510 1508 1507 1506 1506 1506 1507 1507 1506 1506 1506 1506 1506 1506 1508 1509 1511 1515 1517 1520 1523 1525 1527 1528 1527 1528 1527 1526 1530 1528 1531 1533 1537 1539 1542 1547 1549 1552 1557 1560
1513 1512 1510 1509 1508 1506 1506 1506 1505 1504 1504 1505 1505 1505 1505 1505 1504 1503 1505 1505 1507 1510 1513 1516 1519 1523 1526 1527 1527 1527 1524 1525 1525 1527 1527 1530 1533 1537 1540 1545 1549 1551 1555 1559 1563
1513 1511 1509 1508 1507 1505 1504 1504 1503 1504 1503 1502 1503 1503 1503 1504 1503 1501 1500 1503 1506 1509 1514 1518 1521 1524 1525 1526 1526 1524 1523 1524 1527 1529 1529 1531 1535 1537 1540 1545 1547 1549 1555 1560 1565
1513 1510 1508 1507 1505 1504 1502 1502 1502 1501 1502 1502 1501 1502 1502 1503 1503 1500 1500 1502 1505 1509 1513 1517 1521 1523 1525 1524 1525 1524 1523 1523 1525 1528 1530 1533 1536 1540 1541 1544 1547 1551 1554 1559 1565
1512 1510 1507 1505 1503 1503 1502 1500 1499 1499 1500 1501 1501 1500 1501 1503 1500 1500 1499 1501 1504 1508 1512 1516 1520 1523 1525 1524 1524 1524 1523 1525 1527 1531 1532 1535 1537 1540 1545 1546 1552 1555 1559 1563 1567
1513 1510 1507 1505 1503 1502 1500 1499 1498 1497 1497 1498 1499 1500 1500 1502 1499 1498 1498 1501 1504 1509 1513 1517 1519 1521 1524 1524 1524 1521 1522 1525 1529 1533 1534 1537 1540 1541 1548 1550 1554 1558 1561 1565 1567
1513 1510 1507 1504 1502 1501 1500 1499 1498 1497 1497 1496 1497 1498 1499 1498 1497 1498 1498 1502 1506 1511 1514 1517 1518 1521 1523 1522 1522 1519 1524 1527 1531 1533 1538 1540 1546 1546 1549 1553 1556 1560 1563 1566 1569
1512 1510 1507 1505 1502 1501 1500 1499 1498 1497 1497 1497 1496 1497 1496 1496 1497 1499 1500 1504 1508 1512 1516 1518 1519 1521 1521 1520 1519 1518 1518 1528 1532 1532 1539 1543 1550 1550 1552 1554 1557 1560 1563 1567 1570
1511 1509 1506 1504 1502 1501 1500 1499 1498 1497 1497 1497 1498 1497 1496 1496 1498 1499 1502 1506 1509 1513 1516 1518 1520 1520 1519 1517 1517 1520 1523 1521 1535 1532 1534 1543 1548 1549 1553 1555 1557 1560 1563 1568 1570
1510 1508 1506 1504 1502 1501 1500 1498 1497 1497 1496 1497 1498 1500 1496 1497 1497 1500 1503 1506 1509 1512 1517 1520 1521 1518 1518 1514 1522 1523 1524 1517 1528 1535 1535 1543 1544 1548 1551 1554 1555 1559 1563 1567 1569
1509 1507 1505 1503 1502 1501 1499 1499 1500 1499 1496 1494 1496 1497 1495 1496 1497 1501 1504 1506 1509 1513 1513 1518 1517 1517 1517 1513 1512 1514 1519 1518 1529 1535 1538 1543 1539 1544 1551 1553 1556 1558 1562 1565 1567
1508 1506 1504 1502 1501 1501 1500 1499 1499 1500 1495 1491 1492 1494 1494 1496 1498 1499 1504 1508 1510 1511 1514 1518 1516 1515 1516 1517 1515 1515 1516 1527 1534 1537 1538 1545 1547 1544 1546 1547 1552 1554 1559 1564 1567
1508 1505 1503 1501 1500 1501 1500 1500 1497 1496 1496 1493 1492 1492 1493 1495 1496 1497 1503 1506 1508 1511 1512 1510 1509 1514 1516 1518 1517 1516 1517 1520 1526 1538 1540 1542 1551 1548 1545 1548 1552 1556 1558 1561 1563
1506 1504 1502 1500 1502 1500 1500 1499 1496 1495 1495 1494 1493 1493 1494 1493 1495 1496 1501 1505 1508 1509 1511 1509 1510 1511 1516 1518 1517 1523 1516 1519 1528 1530 1540 1538 1545 1544 1541 1542 1547 1550 1554 1556 1559
1504 1501 1499 1498 1498 1499 1501 1498 1496 1495 1507 1495 1493 1494 1494 1494 1495 1498 1500 1503 1504 1506 1509 1510 1509 1511 1516 1514 1517 1521 1517 1521 1525 1534 1536 1541 1542 1532 1534 1540 1540 1542 1548 1552 1554
1500 1497 1495 1495 1497 1499 1498 1497 1497 1500 1511 1497 1495 1495 1494 1494 1495 1498 1501 1503 1504 1505 1507 1507 1509 1509 1509 1513 1514 1516 1523 1524 1529 1534 1543 1526 1527 1523 1529 1521 1530 1535 1540 1545 1550
1497 1494 1493 1495 1498 1498 1498 1497 1501 1507 1502 1504 1501 1498 1497 1498 1496 1496 1499 1501 1504 1512 1512 1509 1509 1508 1510 1513 1516 1517 1522 1542 1554 1547 1536 1529 1531 1511 1514 1516 1517 1521 1528 1535 1544
1495 1493 1494 1496 1498 1498 1498 1498 1510 1507 1506 1504 1502 1500 1501 1503 1501 1499 1498 1502 1505 1503 1510 1514 1521 1509 1508 1509 1513 1516 1517 1522 1550 1545 1527 1532 1526 1508 1511 1513 1513 1518 1525 1533 1541
1495 1496 1497 1498 1498 1498 1499 1504 1509 1507 1506 1505 1503 1502 1503 1504 1503 1501 1502 1499 1501 1502 1510 1514 1515 1506 1506 1507 1509 1517 1520 1512 1521 1528 1525 1522 1516 1509 1509 1509 1510 1515 1524 1529 1534
1496 1496 1498 1500 1499 1499 1500 1511 1509 1508 1507 1505 1506 1507 1508 1508 1504 1503 1504 1504 1503 1504 1504 1508 1515 1506 1505 1506 1509 1507 1506 1522 1521 1537 1536 1523 1522 1505 1510 1509 1509 1512 1517 1525 1531
1497 1498 1500 1501 1501 1500 1505 1510 1509 1508 1508 1505 1507 1507 1511 1511 1511 1509 1508 1505 1505 1505 1506 1505 1507 1509 1506 1505 1503 1510 1510 1513 1508 1513 1517 1521 1513 1504 1505 1509 1508 1511 1515 1519 1526
1496 1498 1501 1502 1504 1510 1509 1511 1510 1508 1508 1507 1507 1508 1509 1511 1510 1511 1511 1509 1508 1507 1505 1507 1504 1511 1507 1507 1508 1505 1503 1503 1507 1521 1513 1507 1505 1509 1509 1510 1512 1514 1517 1521 1526
1498 1501 1503 1503 1505 1510 1512 1510 1510 1508 1509 1507 1507 1508 1511 1510 1513 1512 1510 1508 1508 1506 1507 1508 1511 1512 1509 1509 1508 1507 1510 1511 1510 1507 1507 1511 1503 1512 1512 1514 1516 1517 1519 1523 1526
1500 1502 1505 1505 1507 1509 1509 1510 1509 1510 1510 1509 1509 1510 1510 1510 1512 1512 1510 1507 1507 1507 1507 1508 1511 1505 1509 1507 1510 1509 1511 1511 1509 1504 1501 1500 1499 1512 1513 1515 1517 1519 1520 1523 1527
1500 1505 1505 1506 1509 1511 1511 1512 1511 1511 1511 1511 1511 1512 1511 1512 1511 1511 1510 1507 1507 1508 1508 1507 1510 1513 1510 1510 1512 1512 1512 1511 1509 1500 1500 1492 1496 1495 1504 1511 1516 1519 1522 1524 1526
1501 1503 1506 1510 1511 1511 1513 1513 1512 1513 1513 1513 1513 1512 1511 1511 1510 1510 1510 1509 1509 1508 1508 1510 1511 1514 1513 1512 1511 1510 1509 1505 1504 1503 1502 1499 1493 1496 1506 1512 1516 1519 1522 1525 1527
1503 1504 1505 1511 1512 1511 1513 1513 1514 1514 1515 1515 1514 1513 1512 1512 1512 1512 1511 1511 1511 1510 1510 1511 1511 1514 1514 1515 1511 1513 1508 1507 1507 1505 1502 1499 1495 1497 1506 1510 1515 1519 1522 1525 1528